weather.gov     
National Weather Service

Regional Weather Roundup
NWS Homepage
This page is being discontinued on March 12, 2014.
The same data is available at this site. Please update your bookmarks.
Thank you, and we apologize for the inconvenience.
Please send an email to SR-SRH.Webmaster@noaa.gov with any concerns.


Current Version
Previous Version:    01  02  03  04  05  06  07  08  09  10  11  12  13  14  15  16  17  18  19  20  21  22  23  24  25  26  27  28  
[Printable]
530
ASUS42 KTBW 021210
RWRFL
FLORIDA REGIONAL WEATHER ROUNDUP
NATIONAL WEATHER SERVICE TAMPA BAY RUSKIN FL
800 AM EDT THU OCT 02 2014

NOTE: "FAIR" INDICATES FEW OR NO CLOUDS BELOW 12,000 FEET WITH NO
SIGNIFICANT WEATHER AND/OR OBSTRUCTIONS TO VISIBILITY.


FLZ001>010-012>015-112-114-115-021300-
PANHANDLE FLORIDA

CITY           SKY/WX    TMP DP  RH WIND       PRES   REMARKS
PENSACOLA      LGT RAIN  72  71  97 CALM      30.01R
PENSACOLA NAS  PTCLDY    71  71 100 CALM      30.00R
MILTON NAS     PTCLDY    68  66  93 CALM      30.02R
CRESTVIEW      MOCLDY    67  66  97 CALM      30.04R
DUKE FIELD     FAIR      69  69 100 NE1       30.03R
VALPARAISO     PTCLDY    72  69  93 E1        30.02R
MARY ESTHER    PTCLDY    71  67  87 NE3       30.01R
TRI COUNTY     FAIR      66  65  96 CALM      30.05R
PANAMA CITY    FAIR      69  66  90 CALM      30.02R
TYNDALL AFB    PTCLDY    71  71 100 NE2       30.03R
APALACHICOLA   CLEAR     73  70  90 NE5       30.02R

STATION/POSITION SKY/WX   TEMP    WIND        PRES    WAVE   SWELL
                          AIR SEA DIR/SP/G            HT/PER HT/PER
                          (F)     (DEG/KT/KT) (MB)    (FT/S) (FT/S)
30.1N   87.6W              81 81  160/ 10/ 12 1015.8R   1/ 3
29.2N   88.2W              81 82  150/ 12/ 14 1015.7R   2/ 3
28.8N   86.0W              81 83  120/  8/ 10 1016.2R   1/ 4
PANAMA CITY BEAC           74 81   90/  8/ 10 1016.6R
CAPE SAN BLAS    NOT AVBL
TOWER C                    79     120/  4/  4 1016.6R
28.5N   84.5W              81 83  110/  2/  2 1016.5R   0

$$
FLZ011-016>038-118-127-128-134-139-239-021300-
NORTH FLORIDA

CITY           SKY/WX    TMP DP  RH WIND       PRES   REMARKS
MARIANNA       CLOUDY    69  69 100 E5        30.04R
TALLAHASSEE    PTCLDY    68  67  96 CALM      30.05R
PERRY          PTCLDY    66  66 100 CALM      30.05R FOG
CROSS CITY       N/A     72  70  93 CALM      30.03R
LAKE CITY      MOCLDY    70  70 100 CALM      30.05R
GAINESVILLE    PTCLDY    71  70  96 CALM      30.04R
MAYPORT NAS    MOCLDY    76  73  91 NW5       30.03R
JACKSONVILLE   MOCLDY    72  72 100 CALM      30.03R
JAX NAS        PTCLDY    77  71  82 NW5       30.04R
JAX CRAIG      PTCLDY    73  71  93 CALM      30.03R
JAX CECIL      CLEAR     68  68 100 CALM      30.04R
FERNANDINA BEA PTSUNNY   79  77  94 N5        30.03R
ST AUGUSTINE   CLEAR     75  72  90 CALM      30.03R

STATION/POSITION SKY/WX   TEMP    WIND        PRES    WAVE   SWELL
                          AIR SEA DIR/SP/G            HT/PER HT/PER
                          (F)     (DEG/KT/KT) (MB)    (FT/S) (FT/S)
SHELL POINT                73      40/  4/  6   N/A
KEATON BEACH               70      50/  3/  5 1017.3R
CEDAR KEY                  75      60/  4/  5 1017.3R
FERNANDINA                 76 78  320/  2/  5 1016.6R
30.7N   81.3W                 77                N/A     2/ 8
MAYPORT                    76 79  340/  3/  3   N/A
31.4N   80.9W              78 78   60/  8/ 10 1017.5R   2/ 8   2/ 8
ST AUGUSTINE               79      30/  6/  7 1017.3R

$$
FLZ040-043>046-052-053-057-058-063-144-021300-
INTERIOR CENTRAL FLORIDA

CITY           SKY/WX    TMP DP  RH WIND       PRES   REMARKS
OCALA          PTCLDY    72  70  94 CALM      30.04R
THE VILLAGES     N/A     75  75 100 CALM      29.93R
LEESBURG       CLEAR     74  73  97 CALM      30.03S
SANFORD        CLEAR     75  74  96 CALM      30.02R
ORLANDO EXEC   CLEAR     76  73  91 CALM      30.02R
ORLANDO INTL   PTCLDY    74  74 100 SW3       30.02R
KISSIMMEE      CLEAR     73  73 100 CALM      30.03R
WINTER HAVEN   MOCLDY    76  74  93 CALM      30.04R
LAKELAND       MOCLDY    73  73 100 CALM      30.03R
OKEECHOBEE       N/A     72  72 100 MISG        N/A

$$
FLZ041-047-054-059-064-141-147-021300-
EAST CENTRAL FLORIDA

CITY           SKY/WX    TMP DP  RH WIND       PRES   REMARKS
DAYTONA BEACH  PTCLDY    74  73  97 CALM      30.02R
DELAND         SUNNY     72  72 100 CALM      30.03R
NEW SMYRNA BEA PTCLDY    75  73  94 CALM        N/A
JFK SPACE CTR  CLEAR     74  72  96 NW2       30.01R
TITUSVILLE     PTCLDY    72  72 100 CALM      30.01R
CAPE CANAVERAL CLEAR     75  74  96 CALM      30.00R
PATRICK AFB    CLEAR     80  76  85 NE6       30.00R
MELBOURNE      PTCLDY    77  75  93 NW3       29.99S
VERO BEACH     FOG       73  71  93 W5        30.00R VSB<1/4
FT PIERCE      FOG       74  73  97 NW3       30.00R VSB 1/4
STUART         PTCLDY    75  73  94 W5        30.00R

STATION/POSITION SKY/WX   TEMP    WIND        PRES    WAVE   SWELL
                          AIR SEA DIR/SP/G            HT/PER HT/PER
                          (F)     (DEG/KT/KT) (MB)    (FT/S) (FT/S)
28.5N   80.2W              80 83   50/ 12/ 14 1015.4R
28.9N   78.5W              81 84   70/ 10/ 12 1015.7R   3/ 7   2/ 7
TRIDENT PIER               77 83  350/  2/  2 1015.4R
28.4N   80.5W                 83                N/A     2/ 7
27.6N   80.2W                 83                N/A     2/ 7

$$
FLZ050-056-061-142-242-148-248-149-249-151-251-155-255-
160-260-021300-
WEST CENTRAL FLORIDA

CITY           SKY/WX    TMP DP  RH WIND       PRES   REMARKS
CRYSTAL RIVER  FAIR      72  70  94 CALM      30.03R
INVERNESS      FAIR      70  54  56 CALM      30.03R HAZE
BROOKSVILLE    FOG       73  73 100 CALM      30.04R VSB 1
ZEPHYRHILLS    CLOUDY    66  66 100 CALM      30.04R
CLEARWATER     CLOUDY    77  75  93 NE5       30.02R
TAMPA INTL     CLOUDY    76  73  91 N3        30.03R
TAMPA EXEC     CLOUDY    75  73  94 CALM      30.04R FOG
PLANT CITY     MOCLDY    75 N/A N/A NE3       30.05R HAZE
MACDILL AFB    PTCLDY    76  76 100 E5        30.03R
ST PETERSBURG  CLOUDY    77  74  90 NE7       30.01R
SARASOTA       CLOUDY    75  75 100 NE7       30.01R FOG
VENICE           N/A     77  75  94 MISG      30.02R

STATION/POSITION SKY/WX   TEMP    WIND        PRES    WAVE   SWELL
                          AIR SEA DIR/SP/G            HT/PER HT/PER
                          (F)     (DEG/KT/KT) (MB)    (FT/S) (FT/S)
CEDAR KEY                  75      60/  4/  5 1017.3R
28.5N   84.5W              81 83  110/  2/  2 1016.5R   0
27.3N   84.3W                 84                N/A     1
CLEARWATER BEACH           76 83   70/  4/  5 1016.3R
MIDDLE TAMPA BAY           77     100/  8/  9 1016.7R
VENICE                     78 85   40/  4/  4 1015.9R

$$
FLZ066-069-070-075>078-162-262-165-265-021300-
SOUTHWEST FLORIDA AND KEYS

CITY           SKY/WX    TMP DP  RH WIND       PRES   REMARKS
PUNTA GORDA    CLEAR     76  75  97 CALM      30.03R
FT MYERS       CLEAR     76  76 100 CALM      30.01R
SOUTHWEST INTL CLEAR     76  74  93 CALM      30.02R
NAPLES         PTCLDY    80  77  90 CALM      30.01R
MARCO ISLAND   MOSUNNY   77  73  88 CALM      30.01R
MARATHON       PTCLDY    81  79  94 CALM      30.01R
KEY WEST NAS   PTCLDY    82  76  81 S6        30.01R
KEY WEST INTL  PTCLDY    84  76  76 S3        30.02R

STATION/POSITION SKY/WX   TEMP    WIND        PRES    WAVE   SWELL
                          AIR SEA DIR/SP/G            HT/PER HT/PER
                          (F)     (DEG/KT/KT) (MB)    (FT/S) (FT/S)
VENICE                     78 85   40/  4/  4 1015.9R
NAPLES                     83 88  300/  5/  6 1016.7R
DRY TORTUGAS               83     120/  3/  4 1015.6R
NW FL BAY                  85     310/  2/  3 1015.6R
SAND KEY                   83     160/  6/  7 1016.3R
SOMBRERO KEY               83     200/  6/  6 1017.1R
LONG KEY                   83 87  230/  5/  6 1017.2R
MOLASSES REEF              81 85   30/  6/  7 1016.4R

$$
FLZ067-068-071>074-168-172>174-021300-
SOUTHEAST FLORIDA

CITY           SKY/WX    TMP DP  RH WIND       PRES   REMARKS
W PALM BEACH   CLOUDY    77  76  96 CALM      30.00R
FT LAUDER-EXEC PTCLDY    79  75  87 W5        30.00R
FT LAUDERDALE  PTCLDY    81  76  84 W6        30.00R
POMPANO BEACH  CLEAR     80  77  90 W6        30.01R
PEMBROKE PINES CLEAR     79  77  94 W3        30.02R
OPA LOCKA      CLEAR     80  77  90 NW7       30.01R
MIAMI          PTCLDY    81  77  88 W3        30.02R
WEST KENDALL   CLEAR     79  77  94 CALM      30.02R
HOMESTEAD      CLEAR     77  75  95 CALM      30.02R

STATION/POSITION SKY/WX   TEMP    WIND        PRES    WAVE   SWELL
                          AIR SEA DIR/SP/G            HT/PER HT/PER
                          (F)     (DEG/KT/KT) (MB)    (FT/S) (FT/S)
PORT EVERGLADES            80     280/  6/  7 1016.0
VIRGINIA KEY               81 85  310/  2/  6 1016.7R
LAKE WORTH                 78 85  250/  5/  7 1015.7R
FOWEY ROCKS                81 85  310/  9/ 10 1016.7R
SETTLEMENT POINT           83     270/  9/ 10 1016.3R

$$





U.S. Dept. of Commerce
NOAA National Weather Service
1325 East West Highway
Silver Spring, MD 20910
E-mail: w-nws.webmaster@noaa.gov
Page last modified: May 16, 2007
NATIONAL WEATHER SERVICE: for Safety, for Work, for Fun - FOR LIFE